Weather in Lykoshino

Russia / Tver Oblast     58°06′19″N   33°42′44″E
temp.,
°C
wind,
m/s
gust,
m/s
humid.,
%
clouds,
%
prec.,
mm/h
press.,
hPa
HPBL,
m
15 april, thu
thu1500:00+5nne41090100 0.0 1022514
03:00+4nne41082100 0.0 1022492
06:00+4nne41085100 0.0 1022499
09:00+4ne41286100 0.1 1023552
12:00+4ne51282100 0.1 1024652
15:00+5ne51281100 0.4 1024727
18:00+6ene51279100 0.0 1024818
21:00+5ene51385100 0.6 1024689
16 april, fri
fri1600:00+5ene51381100 0.1 1024646
03:00+4ene51381100 0.1 1024549
06:00+3ene41385100 0.0 1025496
09:00+5ene51277100 0.0 1026538
12:00+9ene6964100 0.0 1026784
15:00+11ene6857100 0.0 10251030
18:00+10ene51056100 0.0 1026933
21:00+7ene5145796 0.0 1027630
17 april, sat
sat1700:00+5ene4136697 0.0 1028520
03:00+4ene4137344 0.0 1028411
06:00+2ene413768 0.0 1029413
09:00+7e5115722 0.0 1029592
12:00+11e68405 0.0 10291093
15:00+13e58355 0.0 10291342
18:00+11e47445 0.0 10291097
21:00+6e311640 0.0 1030302
18 april, sun
sun1800:00+4ene311740 0.0 1031253
03:00+2ene29845 0.0 1031188
06:00+1ene28870 0.0 1032163
09:00+7e36600 0.0 1032467
12:00+11e46435 0.0 10311434
15:00+13e45375 0.0 10301782
18:00+12e45445 0.0 10301529
21:00+6e310685 0.0 1031205
19 april, mon
mon1900:00+4e29795 0.0 1032177
03:00+3ese24855 0.0 103265
06:00+3ese24895 0.0 103286
09:00+9ese36635 0.0 1032419
12:00+13se47445 0.0 10311821
15:00+14se5639100 0.0 10292290
18:00+11ese585593 0.0 10291165
21:00+8ese41068100 0.0 1029411